DW2736 Weather Reports


Display with metric or nautical units.
time (UTC)temp
F
wind
direction
speed
MPH
gust
MPH
rain 1hr
in
rain 24hr
in
rain mn
in
humidity
%
barometer
mb
20181113221226 65 5 0.0 1.0 0.00 0.00 0.00 22 1029.1
20181113220721 65 5 0.0 2.0 0.00 0.00 0.00 22 1029.1
20181113220229 66 5 0.0 2.0 0.00 0.00 0.00 22 1029.1
20181113215714 66 55 0.0 0.0 0.00 0.00 0.00 22 1029.1
20181113215229 66 55 0.0 1.0 0.00 0.00 0.00 21 1029.1
20181113214724 66 55 0.0 2.0 0.00 0.00 0.00 21 1029.1
20181113214219 67 56 0.0 1.0 0.00 0.00 0.00 21 1029.0
20181113213733 66 56 0.0 1.0 0.00 0.00 0.00 20 1029.1
20181113213227 66 55 0.0 2.0 0.00 0.00 0.00 20 1029.1
20181113212721 66 55 0.0 3.0 0.00 0.00 0.00 20 1029.1
20181113212216 66 55 1.0 5.0 0.00 0.00 0.00 20 1029.1
20181113211731 66 57 0.0 5.0 0.00 0.00 0.00 21 1029.1
20181113211226 66 67 0.0 3.0 0.00 0.00 0.00 22 1029.2
20181113210721 66 67 1.0 3.0 0.00 0.00 0.00 22 1029.2
20181113210230 66 68 1.0 3.0 0.00 0.00 0.00 22 1029.2
20181113205729 65 70 0.0 3.0 0.00 0.00 0.00 23 1029.2
20181113205223 65 70 0.0 2.0 0.00 0.00 0.00 24 1029.3
20181113204718 64 70 0.0 0.0 0.00 0.00 0.00 24 1029.3
20181113204232 64 70 0.0 0.0 0.00 0.00 0.00 25 1029.3
20181113203726 64 70 0.0 0.0 0.00 0.00 0.00 25 1029.4
20181113203221 64 70 0.0 2.0 0.00 0.00 0.00 25 1029.5
20181113202719 64 70 0.0 2.0 0.00 0.00 0.00 25 1029.6
20181113202215 64 70 0.0 1.0 0.00 0.00 0.00 26 1029.6
20181113201731 64 70 0.0 3.0 0.00 0.00 0.00 25 1029.6
20181113201226 64 71 0.0 0.0 0.00 0.00 0.00 25 1029.6
20181113200721 63 71 0.0 0.0 0.00 0.00 0.00 26 1029.6
20181113200229 63 71 0.0 0.0 0.00 0.00 0.00 25 1029.8
20181113195729 63 71 0.0 0.0 0.00 0.00 0.00 25 1029.8
20181113195224 63 71 0.0 3.0 0.00 0.00 0.00 25 1030.0
20181113194718 63 71 0.0 3.0 0.00 0.00 0.00 25 1030.0
20181113194232 63 75 0.0 3.0 0.00 0.00 0.00 24 1030.1
20181113193726 63 76 0.0 3.0 0.00 0.00 0.00 24 1030.1
20181113193221 63 78 0.0 0.0 0.00 0.00 0.00 24 1030.1
20181113192715 63 78 0.0 3.0 0.00 0.00 0.00 24 1030.2
20181113192229 63 79 0.0 3.0 0.00 0.00 0.00 23 1030.2
20181113191724 63 84 0.0 0.0 0.00 0.00 0.00 23 1030.2
20181113191218 63 84 0.0 0.0 0.00 0.00 0.00 24 1030.2
20181113190733 63 84 0.0 0.0 0.00 0.00 0.00 24 1030.3
20181113190240 62 84 0.0 2.0 0.00 0.00 0.00 25 1030.3
20181113185724 62 84 0.0 2.0 0.00 0.00 0.00 25 1030.4
20181113185218 62 88 0.0 0.0 0.00 0.00 0.00 25 1030.4
20181113184714 61 88 0.0 0.0 0.00 0.00 0.00 26 1030.4
20181113184228 61 88 0.0 0.0 0.00 0.00 0.00 27 1030.4
20181113183722 60 88 0.0 0.0 0.00 0.00 0.00 28 1030.4
20181113183216 60 88 0.0 0.0 0.00 0.00 0.00 28 1030.5
20181113182730 59 88 0.0 0.0 0.00 0.00 0.00 29 1030.4
20181113182224 59 88 0.0 0.0 0.00 0.00 0.00 30 1030.6
20181113181719 58 88 0.0 0.0 0.00 0.00 0.00 29 1030.6
20181113181214 58 88 0.0 0.0 0.00 0.00 0.00 29 1030.5
20181113180728 57 88 0.0 0.0 0.00 0.00 0.00 30 1030.4
20181113180236 57 88 0.0 0.0 0.00 0.00 0.00 31 1030.5
20181113175715 57 88 0.0 0.0 0.00 0.00 0.00 32 1030.5
20181113175230 56 88 0.0 0.0 0.00 0.00 0.00 32 1030.4
20181113174724 56 88 0.0 0.0 0.00 0.00 0.00 33 1030.3
20181113174220 56 88 0.0 0.0 0.00 0.00 0.00 33 1030.3
20181113173714 55 88 0.0 0.0 0.00 0.00 0.00 34 1030.4
20181113173214 55 88 0.0 0.0 0.00 0.00 0.00 34 1030.4
20181113172728 54 88 0.0 0.0 0.00 0.00 0.00 35 1030.3
20181113172224 54 88 0.0 0.0 0.00 0.00 0.00 36 1030.3
20181113171719 54 88 0.0 0.0 0.00 0.00 0.00 36 1030.4
20181113171233 53 88 0.0 0.0 0.00 0.00 0.00 36 1030.5
20181113170725 53 88 0.0 0.0 0.00 0.00 0.00 34 1030.6
20181113170233 53 88 0.0 0.0 0.00 0.00 0.00 33 1030.7
20181113165732 53 88 0.0 0.0 0.00 0.00 0.00 33 1030.6
20181113165226 52 88 0.0 0.0 0.00 0.00 0.00 33 1030.6
20181113164719 52 88 0.0 0.0 0.00 0.00 0.00 33 1030.5
20181113164215 52 88 0.0 0.0 0.00 0.00 0.00 34 1030.4
20181113163728 51 88 0.0 0.0 0.00 0.00 0.00 34 1030.4
20181113163224 51 88 0.0 0.0 0.00 0.00 0.00 33 1030.4
20181113162719 51 88 0.0 1.0 0.00 0.00 0.00 33 1030.4
20181113162214 50 88 0.0 6.0 0.00 0.00 0.00 34 1030.4
20181113161730 50 88 0.0 6.0 0.00 0.00 0.00 34 1030.4
20181113161225 50 86 0.0 1.0 0.00 0.00 0.00 34 1030.4
20181113160720 49 86 0.0 1.0 0.00 0.00 0.00 35 1030.4
20181113160233 48 86 0.0 0.0 0.00 0.00 0.00 35 1030.4
20181113155733 48 86 0.0 0.0 0.00 0.00 0.00 36 1030.3
20181113155227 47 86 0.0 0.0 0.00 0.00 0.00 37 1030.3
20181113154720 47 86 0.0 0.0 0.00 0.00 0.00 38 1030.3
20181113154216 46 86 0.0 0.0 0.00 0.00 0.00 38 1030.2
20181113153732 46 86 0.0 0.0 0.00 0.00 0.00 39 1030.2
20181113153222 46 86 0.0 0.0 0.00 0.00 0.00 39 1030.2
20181113152719 46 86 0.0 0.0 0.00 0.00 0.00 40 1030.1